QPF
0.01 0.01 0.01 0.01 0.01 0.01 0.01 0.01 0.01 0.00 0.01 0.01 0.02 0.01 0.01 0.02 0.02 0.02 0.02 0.02 0.01 0.01 0.02 0.02 0.01 0.01 0.01 0.01 0.01 0.01 0.02 0.02 0.02 0.02 0.02 0.01 0.01 0.02 0.02 0.01 0.00 0.00 0.01 0.01
0.01 0.00 0.00 0.01 0.01 0.01 0.01 0.01 0.00 0.00 0.01 0.01 0.01 0.01 0.00 0.01 0.02 0.02 0.02 0.02 0.02 0.01 0.02 0.01 0.01 0.01 0.01 0.01 0.01 0.00 0.01 0.00 0.00 0.00 0.00 0.01 0.01 0.01 0.01 0.00 0.00 0.00 0.00 0.00
0.01 0.00 0.00 0.00 0.00 0.01 0.00 0.00 0.00 0.00 0.00 0.01 0.01 0.00 0.00 0.01 0.01 0.01 0.01 0.02 0.01 0.01 0.02 0.02 0.01 0.01 0.01 0.01 0.01 0.01 0.01 0.01 0.00 0.00 0.00 0.00 0.00 0.00 0.00 0.00 0.00 0.00 0.00 0.00
0.01 0.01 0.01 0.00 0.00 0.00 0.00 0.00 0.00 0.00 0.01 0.01 0.01 0.00 0.00 0.01 0.01 0.01 0.01 0.01 0.01 0.01 0.01 0.02 0.02 0.02 0.02 0.02 0.01 0.00 0.01 0.01 0.01 0.00 0.00 0.00 0.00 0.00 0.00 0.00 0.00 0.00 0.00 0.00
0.02 0.02 0.00 0.00 0.00 0.00 0.00 0.00 0.00 0.00 0.01 0.00 0.00 0.00 0.00 0.01 0.01 0.01 0.00 0.00 0.01 0.01 0.02 0.01 0.02 0.02 0.02 0.02 0.01 0.01 0.01 0.02 0.01 0.00 0.00 0.00 0.00 0.00 0.00 0.00 0.00 0.01 0.01 0.01
0.02 0.02 0.01 0.00 0.00 0.00 0.01 0.01 0.00 0.00 0.00 0.00 0.00 0.00 0.00 0.01 0.01 0.01 0.00 0.00 0.01 0.01 0.01 0.01 0.02 0.03 0.02 0.01 0.01 0.01 0.01 0.02 0.01 0.00 0.00 0.00 0.01 0.01 0.01 0.01 0.00 0.00 0.00 0.00
0.02 0.01 0.00 0.00 0.00 0.01 0.01 0.01 0.01 0.01 0.01 0.00 0.00 0.00 0.00 0.00 0.01 0.01 0.01 0.01 0.01 0.01 0.01 0.02 0.02 0.03 0.03 0.02 0.01 0.01 0.02 0.02 0.01 0.01 0.01 0.01 0.01 0.01 0.01 0.01 0.01 0.01 0.01 0.01
0.02 0.01 0.00 0.00 0.00 0.00 0.00 0.01 0.01 0.01 0.01 0.01 0.01 0.01 0.00 0.01 0.01 0.01 0.01 0.01 0.01 0.01 0.01 0.02 0.03 0.03 0.03 0.03 0.02 0.01 0.02 0.02 0.02 0.01 0.01 0.01 0.01 0.01 0.01 0.01 0.01 0.01 0.01 0.01
0.02 0.01 0.01 0.01 0.01 0.01 0.01 0.01 0.01 0.01 0.01 0.01 0.00 0.00 0.00 0.00 0.00 0.01 0.00 0.00 0.01 0.01 0.02 0.02 0.02 0.03 0.03 0.03 0.03 0.02 0.02 0.02 0.02 0.02 0.01 0.01 0.01 0.01 0.01 0.01 0.01 0.01 0.01 0.01
0.02 0.02 0.01 0.00 0.01 0.01 0.01 0.01 0.00 0.00 0.01 0.01 0.00 0.00 0.00 0.00 0.00 0.00 0.01 0.01 0.00 0.01 0.01 0.02 0.02 0.02 0.02 0.02 0.02 0.02 0.03 0.03 0.03 0.02 0.01 0.01 0.01 0.01 0.01 0.01 0.01 0.01 0.01 0.01
0.02 0.02 0.01 0.00 0.00 0.01 0.01 0.01 0.00 0.01 0.01 0.01 0.00 0.00 0.00 0.00 0.00 0.00 0.01 0.01 0.01 0.01 0.01 0.01 0.01 0.01 0.02 0.02 0.02 0.02 0.02 0.03 0.03 0.02 0.02 0.01 0.01 0.01 0.01 0.01 0.01 0.01 0.01 0.01
0.03 0.02 0.01 0.00 0.00 0.00 0.00 0.00 0.00 0.00 0.01 0.01 0.00 0.00 0.00 0.00 0.00 0.00 0.01 0.01 0.01 0.01 0.01 0.01 0.02 0.02 0.02 0.02 0.03 0.03 0.02 0.02 0.02 0.02 0.02 0.02 0.02 0.01 0.01 0.01 0.01 0.01 0.01 0.01
0.02 0.02 0.01 0.00 0.00 0.00 0.00 0.00 0.00 0.00 0.00 0.00 0.00 0.00 0.00 0.00 0.00 0.00 0.01 0.01 0.02 0.01 0.01 0.02 0.02 0.02 0.02 0.02 0.02 0.02 0.02 0.02 0.02 0.02 0.02 0.02 0.02 0.01 0.01 0.00 0.00 0.00 0.00 0.00
0.02 0.02 0.02 0.01 0.00 0.00 0.00 0.00 0.00 0.00 0.00 0.00 0.00 0.00 0.00 0.00 0.00 0.01 0.01 0.01 0.02 0.02 0.02 0.02 0.02 0.03 0.02 0.02 0.01 0.01 0.01 0.01 0.01 0.02 0.02 0.02 0.02 0.02 0.02 0.01 0.00 0.00 0.00 0.00
0.02 0.02 0.03 0.02 0.02 0.01 0.01 0.01 0.01 0.01 0.00 0.00 0.00 0.00 0.00 0.00 0.01 0.01 0.01 0.01 0.02 0.02 0.02 0.02 0.02 0.02 0.02 0.01 0.01 0.01 0.01 0.01 0.01 0.02 0.02 0.02 0.02 0.03 0.03 0.03 0.02 0.01 0.01 0.00
0.02 0.02 0.03 0.03 0.03 0.03 0.02 0.01 0.01 0.01 0.00 0.00 0.00 0.00 0.00 0.00 0.01 0.02 0.02 0.02 0.02 0.02 0.02 0.02 0.02 0.02 0.02 0.01 0.01 0.01 0.01 0.02 0.02 0.01 0.01 0.02 0.02 0.03 0.04 0.05 0.05 0.04 0.03 0.02
0.02 0.02 0.03 0.03 0.03 0.02 0.01 0.01 0.00 0.00 0.00 0.00 0.01 0.01 0.01 0.00 0.01 0.02 0.03 0.03 0.02 0.02 0.02 0.02 0.02 0.02 0.01 0.01 0.01 0.01 0.01 0.01 0.01 0.01 0.01 0.01 0.02 0.02 0.02 0.03 0.04 0.04 0.03 0.02
0.02 0.02 0.02 0.03 0.03 0.02 0.01 0.01 0.01 0.01 0.00 0.00 0.01 0.01 0.01 0.01 0.01 0.02 0.02 0.03 0.03 0.02 0.02 0.02 0.02 0.02 0.01 0.01 0.00 0.00 0.01 0.01 0.01 0.01 0.01 0.01 0.01 0.01 0.02 0.02 0.02 0.01 0.01 0.01
0.02 0.02 0.02 0.02 0.02 0.01 0.01 0.00 0.00 0.00 0.00 0.00 0.01 0.01 0.01 0.01 0.02 0.02 0.02 0.02 0.02 0.02 0.02 0.02 0.02 0.02 0.01 0.01 0.00 0.00 0.01 0.01 0.00 0.00 0.00 0.01 0.00 0.01 0.01 0.01 0.01 0.01 0.00 0.00
0.03 0.02 0.02 0.01 0.01 0.01 0.00 0.00 0.00 0.00 0.00 0.01 0.01 0.01 0.01 0.01 0.02 0.02 0.02 0.02 0.02 0.02 0.01 0.01 0.02 0.02 0.01 0.01 0.01 0.01 0.01 0.00 0.00 0.00 0.00 0.00 0.00 0.00 0.00 0.00 0.00 0.01 0.01 0.00
0.01 0.01 0.01 0.01 0.01 0.00 0.00 0.00 0.00 0.00 0.01 0.01 0.01 0.01 0.01 0.02 0.03 0.03 0.02 0.02 0.02 0.02 0.02 0.01 0.01 0.01 0.01 0.01 0.01 0.01 0.00 0.00 0.00 0.00 0.00 0.00 0.00 0.00 0.00 0.00 0.00 0.00 0.00 0.01
0.00 0.00 0.00 0.00 0.00 0.00 0.00 0.00 0.00 0.01 0.01 0.02 0.02 0.02 0.02 0.03 0.03 0.03 0.02 0.02 0.02 0.02 0.02 0.01 0.01 0.01 0.02 0.01 0.01 0.01 0.01 0.00 0.00 0.00 0.00 0.00 0.00 0.00 0.00 0.00 0.01 0.01 0.01 0.01
0.00 0.00 0.00 0.00 0.00 0.00 0.01 0.01 0.01 0.02 0.02 0.02 0.02 0.02 0.03 0.03 0.03 0.02 0.02 0.01 0.01 0.02 0.02 0.02 0.01 0.01 0.02 0.01 0.01 0.01 0.01 0.01 0.00 0.00 0.00 0.00 0.00 0.01 0.01 0.01 0.01 0.01 0.01 0.02
0.00 0.01 0.00 0.00 0.01 0.02 0.03 0.03 0.02 0.02 0.02 0.02 0.02 0.02 0.02 0.03 0.03 0.02 0.01 0.01 0.01 0.02 0.02 0.02 0.03 0.02 0.01 0.00 0.00 0.01 0.01 0.01 0.00 0.00 0.00 0.00 0.00 0.01 0.01 0.01 0.01 0.01 0.02 0.02
0.01 0.01 0.01 0.01 0.03 0.04 0.04 0.03 0.03 0.03 0.04 0.04 0.03 0.02 0.03 0.03 0.02 0.02 0.01 0.01 0.02 0.02 0.02 0.02 0.02 0.02 0.01 0.00 0.00 0.01 0.01 0.01 0.01 0.00 0.00 0.00 0.01 0.01 0.01 0.02 0.02 0.02 0.02 0.03
0.01 0.02 0.03 0.06 0.07 0.05 0.03 0.03 0.03 0.03 0.04 0.04 0.03 0.02 0.03 0.02 0.02 0.02 0.02 0.02 0.02 0.02 0.02 0.02 0.02 0.02 0.01 0.01 0.01 0.01 0.01 0.01 0.01 0.00 0.00 0.00 0.01 0.01 0.01 0.02 0.02 0.02 0.02 0.02
0.02 0.04 0.07 0.07 0.05 0.04 0.04 0.03 0.03 0.02 0.02 0.03 0.03 0.03 0.02 0.02 0.02 0.02 0.02 0.02 0.02 0.02 0.02 0.02 0.02 0.02 0.02 0.02 0.02 0.01 0.01 0.01 0.01 0.01 0.01 0.01 0.01 0.01 0.01 0.03 0.03 0.04 0.03 0.03
MSLP
1020.98 1021.07 1021.22 1021.42 1021.70 1022.03 1022.40 1022.78 1023.14 1023.45 1023.72 1023.93 1024.10 1024.27 1024.45 1024.68 1024.97 1025.33 1025.76 1026.23 1026.73 1027.23 1027.71 1028.15 1028.53 1028.86 1029.15 1029.39 1029.61 1029.82 1030.02 1030.21 1030.40 1030.57 1030.73 1030.86 1030.95 1031.01 1031.03 1031.01 1030.96 1030.89 1030.81 1030.74
1021.14 1021.20 1021.24 1021.31 1021.41 1021.56 1021.76 1021.99 1022.26 1022.53 1022.82 1023.11 1023.41 1023.71 1024.03 1024.38 1024.76 1025.17 1025.62 1026.09 1026.59 1027.09 1027.58 1028.05 1028.50 1028.92 1029.30 1029.64 1029.95 1030.22 1030.46 1030.68 1030.86 1031.02 1031.15 1031.25 1031.32 1031.37 1031.40 1031.40 1031.38 1031.34 1031.29 1031.24
1021.47 1021.48 1021.43 1021.37 1021.32 1021.30 1021.33 1021.42 1021.59 1021.81 1022.09 1022.42 1022.79 1023.18 1023.59 1024.02 1024.45 1024.90 1025.35 1025.82 1026.31 1026.81 1027.31 1027.83 1028.34 1028.83 1029.30 1029.73 1030.12 1030.46 1030.75 1030.99 1031.18 1031.32 1031.44 1031.53 1031.60 1031.66 1031.70 1031.73 1031.74 1031.74 1031.72 1031.69
1021.85 1021.80 1021.67 1021.49 1021.30 1021.14 1021.03 1021.00 1021.07 1021.23 1021.49 1021.83 1022.23 1022.67 1023.13 1023.60 1024.06 1024.52 1024.97 1025.44 1025.92 1026.42 1026.95 1027.50 1028.07 1028.64 1029.19 1029.70 1030.17 1030.57 1030.90 1031.16 1031.36 1031.52 1031.65 1031.74 1031.83 1031.92 1031.99 1032.06 1032.11 1032.15 1032.15 1032.13
1022.13 1022.01 1021.80 1021.52 1021.22 1020.94 1020.72 1020.60 1020.59 1020.71 1020.94 1021.28 1021.68 1022.15 1022.63 1023.11 1023.58 1024.05 1024.50 1024.97 1025.45 1025.97 1026.54 1027.14 1027.76 1028.40 1029.02 1029.60 1030.13 1030.58 1030.95 1031.24 1031.47 1031.65 1031.80 1031.93 1032.05 1032.17 1032.29 1032.41 1032.50 1032.56 1032.59 1032.58
1022.17 1021.97 1021.67 1021.31 1020.93 1020.57 1020.29 1020.11 1020.06 1020.15 1020.36 1020.69 1021.11 1021.58 1022.08 1022.57 1023.06 1023.53 1024.00 1024.48 1024.99 1025.54 1026.14 1026.79 1027.47 1028.16 1028.84 1029.48 1030.06 1030.55 1030.96 1031.28 1031.54 1031.74 1031.92 1032.09 1032.26 1032.43 1032.60 1032.76 1032.89 1032.99 1033.03 1033.01
1021.88 1021.58 1021.21 1020.78 1020.35 1019.96 1019.65 1019.46 1019.41 1019.49 1019.72 1020.06 1020.49 1020.98 1021.50 1022.02 1022.52 1023.02 1023.52 1024.03 1024.58 1025.17 1025.82 1026.51 1027.24 1027.98 1028.71 1029.39 1030.00 1030.52 1030.95 1031.30 1031.58 1031.82 1032.03 1032.24 1032.45 1032.67 1032.88 1033.08 1033.25 1033.36 1033.41 1033.39
1021.22 1020.84 1020.40 1019.93 1019.49 1019.10 1018.81 1018.64 1018.62 1018.75 1019.01 1019.39 1019.86 1020.38 1020.93 1021.48 1022.03 1022.57 1023.11 1023.67 1024.27 1024.91 1025.60 1026.34 1027.10 1027.88 1028.63 1029.33 1029.95 1030.49 1030.94 1031.31 1031.61 1031.87 1032.11 1032.35 1032.59 1032.85 1033.09 1033.32 1033.51 1033.64 1033.68 1033.65
1020.28 1019.82 1019.33 1018.85 1018.41 1018.06 1017.83 1017.72 1017.77 1017.96 1018.29 1018.72 1019.25 1019.82 1020.42 1021.03 1021.63 1022.22 1022.82 1023.43 1024.07 1024.76 1025.48 1026.25 1027.04 1027.82 1028.58 1029.28 1029.91 1030.45 1030.90 1031.28 1031.59 1031.87 1032.14 1032.40 1032.66 1032.93 1033.20 1033.44 1033.63 1033.75 1033.79 1033.75
1019.15 1018.64 1018.14 1017.67 1017.28 1016.99 1016.83 1016.81 1016.95 1017.22 1017.63 1018.14 1018.73 1019.36 1020.02 1020.68 1021.33 1021.98 1022.63 1023.29 1023.97 1024.69 1025.44 1026.21 1027.00 1027.78 1028.53 1029.21 1029.83 1030.36 1030.81 1031.19 1031.52 1031.81 1032.08 1032.35 1032.63 1032.91 1033.17 1033.40 1033.58 1033.69 1033.72 1033.66
1018.00 1017.47 1016.98 1016.56 1016.23 1016.03 1015.96 1016.04 1016.27 1016.63 1017.12 1017.70 1018.35 1019.04 1019.74 1020.45 1021.15 1021.84 1022.53 1023.22 1023.93 1024.66 1025.41 1026.17 1026.94 1027.69 1028.41 1029.07 1029.67 1030.19 1030.63 1031.02 1031.35 1031.66 1031.94 1032.22 1032.50 1032.76 1033.01 1033.22 1033.38 1033.47 1033.48 1033.42
1016.97 1016.47 1016.02 1015.66 1015.42 1015.31 1015.34 1015.51 1015.82 1016.26 1016.81 1017.44 1018.13 1018.86 1019.60 1020.33 1021.06 1021.77 1022.47 1023.17 1023.88 1024.59 1025.32 1026.06 1026.79 1027.50 1028.19 1028.82 1029.40 1029.91 1030.36 1030.76 1031.11 1031.43 1031.73 1032.02 1032.29 1032.55 1032.77 1032.96 1033.09 1033.16 1033.15 1033.08
1016.14 1015.68 1015.32 1015.04 1014.90 1014.88 1015.00 1015.25 1015.63 1016.12 1016.71 1017.36 1018.07 1018.80 1019.54 1020.27 1021.00 1021.70 1022.40 1023.08 1023.77 1024.45 1025.15 1025.84 1026.53 1027.20 1027.85 1028.46 1029.03 1029.54 1030.01 1030.43 1030.81 1031.17 1031.49 1031.79 1032.06 1032.31 1032.51 1032.67 1032.77 1032.82 1032.80 1032.73
1015.49 1015.13 1014.86 1014.69 1014.64 1014.72 1014.92 1015.23 1015.65 1016.16 1016.76 1017.40 1018.09 1018.80 1019.51 1020.22 1020.92 1021.60 1022.27 1022.92 1023.58 1024.22 1024.87 1025.52 1026.17 1026.80 1027.42 1028.02 1028.58 1029.12 1029.61 1030.07 1030.49 1030.89 1031.24 1031.56 1031.84 1032.08 1032.27 1032.41 1032.49 1032.52 1032.49 1032.42
1014.99 1014.73 1014.58 1014.52 1014.58 1014.74 1015.00 1015.36 1015.80 1016.32 1016.89 1017.50 1018.14 1018.80 1019.47 1020.14 1020.79 1021.43 1022.06 1022.68 1023.30 1023.91 1024.52 1025.13 1025.74 1026.35 1026.95 1027.55 1028.12 1028.68 1029.22 1029.72 1030.19 1030.63 1031.02 1031.37 1031.66 1031.90 1032.08 1032.21 1032.27 1032.29 1032.25 1032.19
1014.52 1014.38 1014.35 1014.41 1014.57 1014.81 1015.14 1015.53 1015.97 1016.47 1017.00 1017.57 1018.16 1018.76 1019.37 1019.98 1020.59 1021.19 1021.79 1022.38 1022.96 1023.54 1024.13 1024.72 1025.31 1025.91 1026.50 1027.10 1027.70 1028.28 1028.85 1029.40 1029.92 1030.39 1030.82 1031.19 1031.50 1031.75 1031.93 1032.04 1032.10 1032.11 1032.07 1032.02
1013.99 1013.98 1014.07 1014.24 1014.50 1014.83 1015.21 1015.62 1016.07 1016.54 1017.04 1017.55 1018.08 1018.62 1019.18 1019.74 1020.32 1020.89 1021.46 1022.03 1022.61 1023.18 1023.76 1024.33 1024.92 1025.51 1026.11 1026.72 1027.33 1027.94 1028.53 1029.11 1029.65 1030.16 1030.61 1031.00 1031.32 1031.57 1031.75 1031.86 1031.92 1031.93 1031.90 1031.85
1013.34 1013.45 1013.66 1013.95 1014.31 1014.71 1015.14 1015.59 1016.04 1016.50 1016.96 1017.43 1017.92 1018.41 1018.93 1019.46 1020.00 1020.56 1021.13 1021.70 1022.28 1022.85 1023.43 1024.01 1024.60 1025.19 1025.80 1026.40 1027.02 1027.62 1028.23 1028.81 1029.37 1029.88 1030.34 1030.74 1031.06 1031.31 1031.49 1031.60 1031.66 1031.68 1031.66 1031.63
1012.58 1012.79 1013.11 1013.51 1013.96 1014.43 1014.92 1015.40 1015.87 1016.33 1016.77 1017.22 1017.67 1018.14 1018.63 1019.14 1019.68 1020.23 1020.81 1021.39 1021.98 1022.57 1023.16 1023.75 1024.34 1024.94 1025.53 1026.12 1026.72 1027.31 1027.90 1028.47 1029.01 1029.50 1029.95 1030.33 1030.65 1030.90 1031.08 1031.19 1031.26 1031.29 1031.29 1031.28
1011.75 1012.06 1012.48 1012.97 1013.50 1014.04 1014.59 1015.10 1015.59 1016.06 1016.51 1016.95 1017.39 1017.85 1018.33 1018.83 1019.37 1019.93 1020.52 1021.11 1021.72 1022.33 1022.92 1023.52 1024.11 1024.69 1025.26 1025.83 1026.39 1026.95 1027.49 1028.02 1028.51 1028.98 1029.39 1029.75 1030.06 1030.30 1030.48 1030.61 1030.70 1030.75 1030.77 1030.79
1010.97 1011.35 1011.84 1012.40 1013.00 1013.60 1014.19 1014.75 1015.27 1015.76 1016.22 1016.66 1017.10 1017.56 1018.04 1018.54 1019.08 1019.65 1020.24 1020.85 1021.46 1022.07 1022.67 1023.26 1023.84 1024.39 1024.93 1025.46 1025.97 1026.47 1026.96 1027.43 1027.87 1028.29 1028.67 1029.00 1029.29 1029.53 1029.72 1029.87 1029.98 1030.06 1030.12 1030.17
1010.29 1010.73 1011.27 1011.88 1012.52 1013.17 1013.80 1014.39 1014.94 1015.45 1015.93 1016.38 1016.83 1017.29 1017.77 1018.27 1018.81 1019.37 1019.96 1020.56 1021.16 1021.77 1022.35 1022.93 1023.47 1024.00 1024.50 1024.97 1025.43 1025.87 1026.30 1026.70 1027.09 1027.46 1027.80 1028.11 1028.39 1028.64 1028.84 1029.02 1029.17 1029.29 1029.39 1029.47
1009.79 1010.25 1010.82 1011.45 1012.11 1012.78 1013.43 1014.05 1014.62 1015.16 1015.65 1016.12 1016.58 1017.03 1017.51 1018.01 1018.53 1019.07 1019.64 1020.22 1020.80 1021.38 1021.94 1022.48 1022.99 1023.48 1023.93 1024.36 1024.77 1025.15 1025.52 1025.87 1026.21 1026.54 1026.85 1027.14 1027.42 1027.68 1027.92 1028.13 1028.32 1028.49 1028.64 1028.76
1009.45 1009.92 1010.48 1011.10 1011.77 1012.44 1013.10 1013.72 1014.31 1014.86 1015.37 1015.85 1016.32 1016.78 1017.24 1017.72 1018.21 1018.73 1019.26 1019.80 1020.35 1020.89 1021.41 1021.92 1022.40 1022.84 1023.26 1023.64 1024.00 1024.34 1024.67 1024.97 1025.28 1025.58 1025.88 1026.17 1026.45 1026.73 1027.00 1027.25 1027.49 1027.70 1027.90 1028.06
1009.23 1009.68 1010.21 1010.81 1011.45 1012.11 1012.76 1013.39 1013.98 1014.54 1015.07 1015.55 1016.03 1016.48 1016.93 1017.39 1017.86 1018.34 1018.83 1019.33 1019.83 1020.33 1020.81 1021.27 1021.71 1022.12 1022.51 1022.86 1023.19 1023.50 1023.79 1024.07 1024.36 1024.64 1024.93 1025.22 1025.52 1025.82 1026.12 1026.41 1026.69 1026.95 1027.19 1027.39
1009.06 1009.47 1009.97 1010.52 1011.12 1011.75 1012.38 1013.00 1013.60 1014.17 1014.71 1015.21 1015.69 1016.15 1016.59 1017.03 1017.46 1017.91 1018.35 1018.81 1019.26 1019.71 1020.16 1020.59 1020.99 1021.38 1021.73 1022.06 1022.37 1022.66 1022.93 1023.20 1023.47 1023.74 1024.03 1024.32 1024.62 1024.94 1025.27 1025.58 1025.90 1026.20 1026.47 1026.71
1008.88 1009.24 1009.68 1010.18 1010.74 1011.33 1011.94 1012.55 1013.16 1013.74 1014.29 1014.81 1015.30 1015.77 1016.21 1016.63 1017.04 1017.46 1017.86 1018.28 1018.69 1019.10 1019.51 1019.90 1020.28 1020.64 1020.97 1021.29 1021.58 1021.85 1022.11 1022.36 1022.61 1022.87 1023.14 1023.43 1023.73 1024.06 1024.39 1024.73 1025.06 1025.39 1025.69 1025.96
Thickness
5685 5693 5694 5694 5695 5695 5689 5683 5675 5682 5688 5699 5706 5709 5712 5713 5712 5712 5711 5710 5709 5708 5707 5706 5704 5704 5703 5702 5701 5699 5696 5693 5691 5691 5689 5688 5686 5684 5683 5681 5679 5677 5675 5673
5680 5690 5690 5689 5694 5696 5694 5692 5688 5689 5691 5708 5710 5710 5708 5708 5709 5707 5706 5707 5706 5705 5704 5703 5702 5701 5700 5698 5698 5696 5693 5690 5689 5687 5685 5683 5681 5679 5677 5675 5673 5671 5669 5667
5662 5676 5679 5674 5693 5694 5694 5696 5692 5685 5694 5704 5702 5704 5704 5705 5706 5705 5705 5704 5703 5702 5701 5700 5700 5699 5697 5696 5695 5692 5689 5687 5685 5683 5680 5678 5677 5673 5671 5669 5667 5665 5663 5662
5654 5662 5654 5680 5702 5702 5695 5697 5699 5698 5699 5702 5702 5704 5704 5705 5703 5702 5703 5702 5701 5701 5699 5699 5698 5697 5695 5693 5691 5688 5685 5683 5681 5679 5676 5674 5671 5668 5666 5665 5662 5660 5658 5656
5645 5646 5657 5681 5696 5697 5690 5688 5698 5696 5697 5698 5699 5695 5693 5700 5702 5701 5701 5701 5700 5699 5698 5697 5695 5695 5692 5689 5686 5684 5682 5680 5678 5676 5672 5669 5666 5663 5662 5659 5657 5655 5653 5651
5643 5643 5645 5674 5696 5703 5692 5677 5696 5696 5694 5693 5690 5677 5682 5695 5697 5697 5697 5697 5696 5696 5694 5693 5693 5691 5688 5684 5682 5680 5680 5678 5676 5673 5669 5665 5662 5659 5657 5654 5651 5649 5647 5645
5640 5639 5653 5681 5693 5694 5668 5673 5692 5693 5691 5688 5684 5684 5688 5692 5692 5693 5693 5692 5693 5692 5690 5689 5690 5688 5683 5681 5679 5679 5677 5674 5671 5669 5665 5662 5658 5654 5651 5648 5644 5642 5639 5638
5636 5634 5648 5682 5683 5675 5674 5685 5687 5686 5686 5685 5684 5685 5686 5686 5686 5686 5685 5686 5687 5686 5685 5685 5685 5683 5679 5677 5678 5676 5673 5669 5666 5663 5661 5657 5652 5648 5645 5641 5637 5633 5631 5629
5643 5648 5667 5675 5677 5681 5681 5679 5681 5680 5681 5680 5678 5677 5678 5678 5678 5679 5679 5680 5680 5680 5679 5678 5679 5678 5675 5674 5673 5671 5667 5663 5661 5658 5655 5651 5647 5642 5638 5634 5630 5626 5624 5621
5643 5653 5662 5668 5672 5675 5676 5675 5677 5678 5677 5676 5673 5672 5672 5671 5671 5672 5673 5673 5673 5672 5671 5671 5672 5673 5672 5670 5668 5665 5661 5658 5655 5651 5647 5644 5640 5637 5632 5628 5624 5620 5617 5615
5636 5646 5652 5659 5662 5665 5667 5669 5669 5670 5671 5670 5669 5666 5665 5664 5664 5665 5665 5665 5666 5665 5664 5665 5666 5666 5666 5664 5662 5658 5654 5651 5647 5644 5640 5636 5632 5629 5627 5624 5621 5617 5613 5610
5631 5641 5640 5647 5656 5658 5657 5659 5660 5660 5659 5661 5662 5660 5659 5657 5658 5658 5657 5658 5657 5657 5657 5658 5658 5658 5657 5657 5655 5651 5646 5643 5640 5637 5632 5628 5624 5621 5619 5617 5615 5612 5610 5606
5639 5643 5641 5645 5648 5650 5650 5652 5653 5654 5653 5652 5653 5654 5652 5650 5650 5650 5650 5650 5650 5650 5650 5650 5650 5649 5649 5648 5646 5643 5640 5637 5633 5630 5625 5621 5617 5614 5610 5607 5606 5604 5601 5599
5636 5636 5633 5637 5639 5643 5644 5645 5646 5646 5647 5647 5645 5645 5644 5642 5642 5642 5642 5642 5643 5643 5643 5642 5642 5641 5641 5639 5638 5635 5632 5629 5626 5622 5619 5614 5610 5607 5603 5600 5596 5593 5592 5590
5629 5631 5630 5632 5633 5635 5636 5636 5635 5635 5637 5637 5637 5636 5635 5633 5633 5634 5634 5634 5634 5634 5634 5633 5633 5632 5632 5631 5629 5626 5623 5620 5617 5614 5611 5607 5603 5599 5595 5592 5588 5585 5582 5579
5622 5623 5624 5624 5625 5626 5626 5626 5625 5626 5627 5628 5627 5627 5627 5626 5626 5626 5626 5626 5624 5623 5624 5624 5623 5623 5623 5621 5619 5616 5614 5612 5609 5605 5602 5598 5594 5590 5586 5583 5580 5577 5574 5571
5612 5612 5613 5614 5616 5617 5618 5618 5618 5619 5619 5619 5619 5619 5618 5617 5616 5616 5616 5616 5616 5616 5616 5615 5614 5614 5614 5612 5610 5607 5604 5602 5600 5596 5592 5589 5586 5582 5578 5575 5571 5569 5566 5563
5610 5610 5610 5610 5611 5610 5610 5611 5611 5611 5611 5612 5612 5610 5609 5608 5607 5607 5607 5607 5607 5606 5607 5607 5606 5605 5604 5602 5600 5598 5595 5592 5589 5587 5584 5580 5577 5574 5570 5566 5563 5560 5557 5553
5602 5601 5602 5603 5604 5603 5604 5604 5604 5605 5605 5604 5603 5602 5601 5601 5600 5599 5599 5599 5597 5597 5597 5598 5597 5596 5594 5593 5592 5589 5585 5582 5580 5577 5575 5572 5568 5565 5561 5558 5554 5551 5548 5545
5593 5594 5594 5595 5596 5596 5597 5597 5598 5598 5598 5596 5595 5594 5592 5592 5592 5592 5591 5590 5590 5591 5591 5590 5589 5587 5585 5584 5583 5580 5577 5573 5571 5568 5565 5562 5558 5556 5553 5550 5546 5543 5540 5537
5586 5586 5586 5586 5587 5589 5590 5590 5590 5590 5590 5589 5587 5586 5585 5584 5584 5583 5582 5581 5583 5583 5582 5582 5581 5579 5577 5576 5573 5570 5567 5564 5562 5559 5556 5553 5550 5547 5544 5541 5538 5535 5533 5529
5577 5578 5578 5579 5579 5580 5581 5582 5582 5582 5582 5580 5580 5579 5577 5576 5576 5575 5575 5576 5576 5576 5574 5573 5572 5571 5570 5568 5564 5562 5559 5556 5553 5551 5548 5545 5542 5539 5536 5533 5530 5527 5524 5521
5567 5568 5569 5569 5570 5571 5572 5573 5574 5574 5573 5573 5572 5571 5571 5570 5569 5568 5567 5568 5568 5568 5567 5566 5565 5563 5561 5558 5556 5553 5550 5547 5545 5543 5540 5537 5534 5531 5528 5524 5522 5519 5516 5513
5557 5558 5559 5560 5561 5561 5561 5563 5564 5566 5566 5566 5566 5566 5565 5563 5561 5562 5562 5562 5562 5560 5558 5557 5556 5554 5552 5549 5547 5544 5541 5539 5537 5535 5532 5528 5525 5522 5519 5516 5513 5510 5508 5505
5548 5548 5549 5550 5550 5551 5552 5553 5554 5555 5556 5556 5556 5557 5557 5557 5556 5555 5554 5553 5553 5551 5549 5548 5547 5544 5542 5540 5538 5535 5533 5530 5528 5526 5523 5519 5516 5513 5510 5507 5505 5502 5499 5496
5538 5539 5540 5541 5542 5543 5544 5544 5544 5545 5546 5546 5546 5547 5547 5547 5547 5546 5545 5543 5542 5540 5538 5537 5536 5534 5532 5531 5529 5527 5524 5522 5519 5516 5513 5510 5507 5504 5501 5499 5496 5493 5490 5487
5529 5530 5531 5532 5533 5535 5536 5537 5537 5537 5538 5538 5538 5538 5538 5537 5537 5536 5535 5533 5531 5530 5528 5527 5526 5525 5523 5522 5520 5517 5515 5512 5510 5507 5504 5502 5499 5496 5493 5491 5488 5485 5482 5479